GFSSE_850_dewp_120.txt.gz
Dewpoint
6 -6 -7 -8 -3 -1 3 8 10 11 11 12 12 12 11 10 9 9 9 10 11 12 12 11 11 10 10 11 10 9 8 9 11 11 11 11 11 11 11 11 12 12 11
4 -6 -5 -6 -5 -2 4 7 9 10 10 10 12 12 12 10 9 9 9 10 11 13 11 11 10 10 11 11 10 9 8 9 10 10 10 11 10 10 10 11 11 9 9
4 -5 -4 -3 -3 -4 4 7 9 9 8 8 11 12 12 11 10 10 10 13 14 13 12 11 11 11 11 10 10 9 8 8 9 10 9 12 11 8 7 7 7 7 8
-4 -6 -5 -3 -3 -3 2 8 9 7 7 9 12 13 12 11 10 10 12 14 13 12 11 11 11 11 10 9 8 7 7 8 9 9 10 12 12 8 8 8 8 8 8
-4 -5 -5 -3 -3 -3 2 7 7 7 7 10 11 13 12 11 10 10 13 13 12 12 11 11 11 11 9 9 8 6 8 9 9 10 9 10 12 10 9 9 9 9 10
-3 -5 -4 -3 -2 -3 0 6 7 7 5 8 11 12 13 11 11 12 13 12 13 11 11 10 10 10 10 9 9 8 8 9 8 9 9 11 12 10 10 10 9 9 8
-2 -4 -4 -2 -2 -1 1 5 7 6 6 7 9 11 12 11 11 4 7 9 9 12 11 10 9 10 9 9 10 9 8 9 9 9 9 11 12 9 9 9 8 8 9
-1 -4 -4 -2 -1 1 4 6 8 7 6 6 7 11 12 11 11 8 7 6 2 10 8 9 10 9 9 11 11 10 9 10 9 8 8 10 11 10 9 9 8 8 8
-0 -1 -3 -2 -1 2 5 8 8 8 7 6 7 8 11 11 9 6 8 4 7 9 4 6 9 9 9 11 11 10 10 10 9 8 8 10 10 9 8 8 8 8 8
0 1 -1 -2 -0 0 3 7 9 9 8 7 7 8 10 11 9 8 8 6 6 5 4 5 10 10 11 12 11 10 10 9 8 8 7 9 9 9 5 3 3 -1 -0
2 2 1 -2 0 2 3 5 8 9 9 9 8 9 10 9 9 11 8 7 6 5 3 2 6 9 11 11 10 10 8 8 8 7 8 7 7 5 -3 -8 -6 -1 -9
5 3 3 1 0 3 4 5 7 10 10 10 10 9 12 12 12 12 11 8 7 6 6 8 6 6 11 11 9 6 8 9 8 7 8 8 8 7 4 -1 -10 -1 3
10 13 6 4 2 3 4 6 7 10 12 12 13 12 11 13 12 12 12 8 7 7 8 9 8 8 11 10 9 9 10 9 7 7 8 8 8 8 -2 1 4 3 5
8 11 11 5 4 4 5 7 7 10 11 12 12 12 12 12 12 12 12 8 8 9 9 9 8 7 10 8 9 10 9 8 7 7 7 8 7 7 6 6 8 6 3
3 9 4 5 4 5 5 7 8 9 10 12 10 12 12 12 12 11 9 7 8 8 10 9 9 10 10 10 11 10 9 8 8 6 8 8 8 6 7 8 8 4 -1
2 2 5 -3 1 4 6 7 8 9 9 11 8 9 11 12 12 11 9 10 9 11 11 10 10 10 10 10 10 10 9 7 7 7 8 8 7 5 7 8 2 -5 -6
-3 -3 4 -2 -7 -2 2 7 8 8 8 9 9 9 12 12 12 11 10 10 10 10 11 10 10 9 10 10 10 10 9 8 7 7 7 7 7 7 7 7 0 -5 -4
-5 -4 -1 3 -6 -5 3 10 9 9 8 9 9 10 11 12 12 12 12 11 9 9 10 9 9 10 9 10 10 9 8 8 8 7 7 7 7 7 7 4 2 -2 -1
-4 -4 -2 -4 -6 -5 1 12 13 9 8 9 10 12 11 11 12 11 12 11 11 9 10 9 8 9 9 9 10 9 8 8 8 7 7 7 7 6 6 1 4 2 -3
-1 -4 -7 -9 -7 3 8 12 13 10 9 10 10 11 11 10 10 11 11 11 10 10 10 8 8 8 9 9 9 9 8 8 9 8 8 7 7 7 6 7 1 0 -6
4 2 -4 -2 -2 6 9 12 12 10 10 10 11 11 8 8 10 10 11 11 11 11 10 9 7 8 8 8 8 8 9 9 9 9 9 7 6 7 7 6 6 6 -4
7 3 3 5 7 10 10 12 11 11 10 10 11 9 7 8 8 10 11 10 11 11 10 10 8 8 8 9 8 8 9 9 9 9 9 7 7 7 7 7 6 6 6
6 9 9 9 10 9 12 11 12 10 10 11 10 6 9 10 10 10 10 10 11 10 10 10 9 7 8 9 8 7 7 7 8 9 9 8 8 7 7 7 7 7 5
8 9 10 10 6 8 11 11 12 11 11 10 6 5 10 11 11 11 10 10 10 10 10 10 9 7 7 8 8 7 6 5 7 8 8 8 8 8 8 8 4 4 6
7 6 10 11 4 11 12 12 12 12 12 10 4 8 11 10 10 10 10 9 10 10 10 10 9 8 8 8 8 8 7 8 7 6 7 8 8 8 8 5 4 5 8
6 8 6 8 10 11 12 13 12 12 12 9 10 11 10 11 9 9 10 10 10 10 10 10 9 8 8 8 8 8 7 7 6 6 5 7 7 8 8 5 5 7 8

GFSSE_850_dewp_126.txt.gz
Dewpoint
6 -1 -6 -6 -6 -6 -3 -0 4 7 9 10 11 11 11 11 9 9 8 9 9 11 11 11 12 11 11 11 9 7 10 11 11 11 9 9 10 11 11 12 11 10 10
5 -3 -6 -6 -8 -7 -4 1 4 7 9 10 11 11 11 11 10 9 9 10 11 12 11 12 12 11 11 9 8 5 5 8 9 9 8 9 11 12 12 12 11 11 11
0 -5 -6 -4 -4 -4 -3 2 6 7 9 9 10 10 11 11 11 9 10 11 11 12 12 12 11 10 9 9 8 6 4 8 8 9 10 11 11 12 12 9 9 8 8
-1 -6 -5 -3 -2 -3 -1 4 6 8 9 8 8 9 11 12 11 10 10 11 12 12 12 11 10 10 10 9 7 7 8 7 7 11 10 9 10 10 8 7 7 8 8
4 -6 -4 -3 -3 -4 -1 3 6 7 7 7 8 9 11 12 11 11 11 11 11 12 13 12 11 11 10 8 5 2 6 8 11 12 10 8 8 8 8 8 8 9 8
6 -4 -4 -3 -3 -5 -3 2 5 6 6 7 9 11 12 12 11 11 10 7 6 6 9 11 12 11 10 8 5 4 6 10 11 12 11 8 6 9 9 10 10 10 10
6 2 -4 -4 -2 -4 -5 -1 4 6 6 5 9 11 12 12 12 11 11 5 5 3 6 7 10 10 9 8 6 4 6 10 11 12 10 8 6 10 10 10 9 8 8
6 4 -3 -4 -2 -3 -4 -3 1 5 6 5 6 10 13 13 12 11 10 8 6 4 4 6 7 9 10 9 7 3 6 10 11 12 8 5 7 10 9 9 8 8 9
8 2 -2 -4 -3 -2 -2 -3 -0 2 6 6 6 8 12 13 12 11 11 8 7 4 6 8 4 5 9 9 9 3 7 9 11 11 8 8 7 8 9 9 8 7 8
10 10 -3 -3 -4 -3 -2 -2 -1 1 5 7 6 7 10 11 12 12 11 9 7 5 6 5 5 6 7 8 9 6 5 8 10 10 8 8 8 6 8 8 8 7 7
12 12 2 -2 -2 -3 -2 -1 -0 1 4 7 7 6 8 11 12 12 12 10 8 7 6 7 7 7 7 8 8 8 2 8 9 10 9 9 5 2 8 7 6 5 6
13 14 6 -0 0 -1 -1 -1 -0 1 2 6 7 7 8 10 11 12 12 10 10 7 8 9 7 8 7 7 8 9 3 7 8 8 8 8 8 0 10 8 7 5 4
9 10 7 5 2 5 2 -0 -0 1 2 4 7 8 8 8 12 12 12 11 10 9 9 8 7 8 7 7 9 7 5 8 9 8 7 7 5 -5 9 8 6 4 2
7 7 8 11 7 9 7 5 1 1 2 3 5 8 10 10 11 12 12 12 11 10 10 8 7 8 8 8 8 4 8 7 7 7 7 7 0 -4 8 4 2 1 1
-1 6 9 11 11 10 13 6 4 4 3 4 4 6 11 11 11 12 13 12 12 11 10 9 8 8 8 7 8 5 7 7 7 7 7 6 -7 3 8 9 5 4 1
-2 1 9 11 12 13 11 11 6 5 7 10 10 10 11 12 11 11 13 12 12 11 10 9 7 8 8 8 10 5 7 8 7 7 7 -0 3 6 8 9 7 -0 -5
-3 0 4 8 11 13 12 13 11 8 11 10 12 13 13 12 13 12 12 12 12 12 11 10 9 9 8 9 9 7 7 8 7 6 6 -0 6 7 6 7 5 -0 -2
-2 -2 3 4 5 10 9 11 9 5 9 14 14 13 13 12 13 13 12 12 12 11 10 10 9 9 9 10 9 7 7 8 6 7 7 4 4 6 7 4 5 3 1
-3 -3 -2 -2 2 6 6 6 5 7 4 8 15 14 13 13 13 13 12 12 12 12 11 11 10 9 9 10 9 8 8 8 6 8 7 7 3 3 4 4 4 0 -2
-4 -4 -3 -3 -3 -0 6 9 11 11 10 7 11 14 14 13 13 13 13 13 13 12 12 11 10 10 9 10 9 7 8 7 6 7 7 6 5 6 3 1 0 -1 -7
-2 -0 -1 -4 -4 -2 1 8 11 13 9 11 11 13 14 14 12 13 13 13 13 12 12 11 10 9 9 10 10 7 8 7 7 6 7 7 7 6 5 1 -2 -5 -7
2 3 3 5 6 6 6 3 7 11 13 12 12 13 13 14 13 13 13 13 12 12 12 11 11 10 10 9 9 8 8 7 7 6 7 7 7 7 6 6 6 -6 -4
4 6 8 9 9 8 8 8 7 10 13 13 13 13 12 13 13 13 12 12 12 11 11 11 11 11 10 9 10 7 8 8 7 7 6 6 6 5 7 7 6 4 5
4 7 9 11 10 9 9 9 9 10 12 13 13 12 12 14 13 13 12 12 12 12 11 11 11 9 10 8 10 8 7 7 8 8 7 6 7 6 6 6 6 6 6
4 5 7 7 11 11 11 11 12 11 12 12 11 12 12 12 13 13 12 11 10 11 10 11 11 10 10 9 9 9 7 7 7 8 8 6 8 6 5 6 6 6 6
5 7 8 9 8 8 11 11 12 12 12 11 11 11 11 12 12 13 12 11 11 11 11 11 10 11 11 10 9 9 8 7 7 7 7 7 8 7 7 6 6 6 8

GFSSE_850_dewp_129.txt.gz
Dewpoint
1 -3 -4 -6 -7 -7 -5 -1 3 6 8 10 11 11 11 10 9 8 8 9 11 11 11 11 11 11 13 13 11 10 11 11 12 11 10 9 9 9 10 11 10 10 10
1 -4 -6 -7 -8 -7 -5 -2 2 6 9 10 10 11 11 11 10 9 9 10 11 11 11 11 11 11 11 10 9 7 8 9 9 9 8 8 10 11 11 10 10 10 11
-1 -6 -8 -9 -6 -6 -5 0 4 7 9 10 10 10 10 11 10 9 10 11 11 11 12 12 11 11 10 9 8 9 10 10 9 8 8 8 11 11 11 11 10 9 8
-6 -8 -10 -7 -5 -6 -4 2 4 7 8 9 10 10 10 11 11 10 10 9 10 10 11 12 11 10 10 8 5 7 9 8 7 9 8 9 11 11 8 7 7 8 8
-8 -9 -8 -6 -7 -7 -4 2 5 7 7 7 8 9 10 11 11 10 9 9 10 9 11 10 7 10 10 8 6 8 8 11 11 10 8 9 9 8 7 7 8 8 8
-8 -7 -6 -5 -7 -7 -5 1 4 5 6 6 7 10 11 12 11 10 9 6 5 6 9 9 7 9 10 7 4 8 10 11 12 11 8 6 4 8 8 9 10 9 11
-6 -5 -4 -3 -5 -7 -7 -3 3 5 5 6 8 10 12 12 11 11 10 6 5 5 5 8 8 9 7 7 6 9 10 11 12 11 9 7 5 8 9 9 9 9 9
-2 -3 -4 -3 -3 -4 -6 -6 -1 3 5 5 6 9 12 12 12 11 10 6 6 4 5 6 8 8 6 8 5 9 10 11 12 11 9 8 7 9 9 9 8 8 8
4 1 -2 -4 -3 -3 -3 -5 -4 -0 5 6 5 7 11 12 12 12 11 8 7 5 5 7 7 5 4 8 4 9 9 11 10 10 8 8 5 6 8 8 7 7 8
6 5 1 -3 -4 -3 -2 -3 -4 -2 3 5 6 7 9 11 12 11 11 11 8 5 6 7 5 6 7 9 6 8 9 11 11 11 9 9 7 5 5 7 7 7 8
7 4 5 -1 -4 -4 -3 -2 -2 -2 1 4 5 6 7 9 11 12 12 11 9 6 6 5 6 7 8 7 6 4 8 9 11 9 9 8 6 6 5 6 7 7 7
9 7 2 3 -1 -3 -3 -2 -1 -1 -2 2 4 5 6 7 9 10 12 12 11 7 7 6 7 7 7 7 6 6 7 8 10 9 10 8 7 4 -1 3 6 5 5
7 6 -0 -1 2 -0 -2 -2 -2 -1 -1 -0 2 3 5 7 9 10 11 12 11 9 8 8 8 7 6 6 6 5 5 8 9 10 9 8 7 6 -4 -2 2 3 3
8 7 4 -0 -1 2 1 -1 -1 -1 -1 -0 1 2 5 6 7 9 11 11 12 10 9 9 8 7 7 6 3 4 4 9 10 9 8 7 6 -1 -4 2 4 4 1
6 7 6 5 4 4 3 0 2 1 0 0 2 2 4 5 6 8 11 11 11 11 10 9 8 7 7 7 7 4 6 9 9 8 7 7 6 -0 -9 1 3 2 -1
-3 4 7 7 7 8 7 4 2 6 3 3 3 4 4 6 8 10 11 12 12 11 11 10 9 8 8 8 8 7 8 9 9 8 7 7 6 -2 -9 -5 1 6 7
-4 -3 4 9 9 9 8 10 8 8 8 5 7 7 8 6 9 12 11 11 12 11 11 11 10 9 8 8 10 7 8 9 9 7 6 6 4 -2 2 1 1 7 8
-4 -3 -3 7 9 8 8 10 8 5 9 8 14 11 11 12 11 13 13 12 12 12 11 11 10 9 9 9 8 6 8 8 7 6 6 6 -2 1 4 4 3 5 -1
-3 -3 -2 5 7 7 8 7 3 3 4 6 13 15 14 13 13 13 13 13 13 12 12 11 11 10 9 9 9 9 8 9 8 7 7 6 2 1 3 6 2 2 -8
-3 -2 3 10 10 9 8 8 10 8 7 7 8 13 14 14 13 13 13 13 13 13 12 12 11 11 10 9 9 10 8 9 7 6 6 7 4 3 2 3 1 -4 -8
-4 -4 -3 -3 -3 -1 6 10 9 9 9 8 9 12 13 13 13 13 13 13 13 13 12 12 11 11 9 9 10 10 9 9 7 6 6 7 5 2 1 2 -1 -7 -8
-4 -4 0 0 1 5 6 4 5 9 9 6 8 9 12 12 13 13 13 13 13 13 12 12 12 11 10 9 9 9 9 8 7 7 7 6 6 5 5 1 -1 -5 -8
1 0 -1 -0 1 1 5 8 7 6 11 11 12 12 13 12 12 13 13 13 13 12 12 11 11 10 10 10 9 8 9 9 7 7 7 7 7 6 6 5 6 2 -7
2 2 2 4 2 7 10 8 8 8 7 9 10 10 12 12 12 12 12 12 12 12 12 11 10 10 10 9 10 9 7 7 8 7 6 7 7 6 6 6 7 5 -4
4 3 2 1 5 9 11 10 9 9 10 8 10 12 11 11 11 11 13 12 12 12 12 11 9 11 10 10 10 9 7 8 7 7 7 6 6 6 6 7 7 5 4
5 4 3 7 9 9 8 9 11 11 12 12 12 12 11 11 11 11 12 12 12 11 12 10 10 11 11 11 10 10 7 8 7 7 7 7 6 6 5 6 6 6 7

GFSSE_850_dewp_132.txt.gz
Dewpoint
-4 -5 -5 -6 -6 -6 -3 2 5 7 9 10 11 11 10 10 8 7 8 9 10 11 11 11 11 12 12 12 10 10 11 12 12 11 11 10 9 9 10 10 10 10 11
-3 -3 -5 -7 -9 -10 -7 -1 3 7 9 10 11 11 10 10 9 7 8 10 10 11 11 11 11 11 11 11 11 11 12 11 11 10 9 9 9 10 10 10 10 10 11
-3 -5 -8 -7 -7 -8 -6 -2 2 6 9 10 11 11 10 10 9 8 9 8 9 10 10 11 11 11 11 9 9 8 10 10 10 9 9 9 11 10 10 10 10 10 9
-8 -10 -9 -6 -6 -7 -6 -1 2 6 8 10 10 10 10 11 10 8 8 8 9 9 10 10 10 9 8 9 8 9 10 10 10 10 9 10 10 11 10 9 8 8 9
-10 -11 -9 -8 -8 -8 -5 -1 2 5 7 8 9 9 10 11 10 8 8 9 10 10 11 9 9 9 9 7 9 9 8 10 10 9 9 10 10 8 7 7 8 8 8
-10 -10 -10 -9 -9 -8 -5 -0 2 4 6 7 8 9 11 11 11 9 8 5 6 6 10 9 8 9 8 6 9 9 9 11 10 9 9 9 7 5 7 7 8 9 10
-9 -10 -9 -9 -9 -8 -6 -1 2 4 4 5 7 10 11 11 11 9 6 5 5 7 7 9 7 9 7 5 9 10 9 11 10 9 5 6 5 6 8 9 9 9 10
-7 -9 -8 -7 -7 -8 -7 -4 1 4 5 5 7 10 11 11 11 10 7 6 5 4 5 6 8 8 5 6 9 9 11 11 10 10 8 7 9 8 9 9 9 9 9
-8 -8 -6 -4 -4 -5 -7 -6 -3 1 4 6 6 8 10 10 11 11 9 7 7 5 5 5 8 6 6 8 8 8 10 10 11 9 9 8 8 8 6 7 7 8 9
-4 -6 -6 -4 -3 -3 -4 -5 -4 -1 2 5 6 6 8 10 11 11 11 8 8 5 5 8 8 5 4 7 7 9 10 9 9 9 8 9 8 8 6 6 6 7 8
2 1 -3 -4 -4 -3 -3 -3 -4 -2 1 3 5 6 6 9 10 11 11 11 9 5 6 7 6 5 5 7 6 8 9 9 10 10 9 9 9 10 7 6 6 6 7
4 4 4 2 -2 -4 -3 -2 -2 -2 -2 1 2 5 5 7 8 10 11 11 10 7 6 6 5 5 5 5 5 5 9 9 9 10 10 9 8 6 4 6 5 4 5
5 5 5 5 3 -3 -3 -2 -2 -1 -1 -1 1 1 4 6 8 9 11 11 11 9 7 6 5 6 6 6 7 8 7 8 8 10 10 9 8 8 4 3 5 3 3
6 6 6 6 5 3 -2 -2 -2 -1 -1 -1 -0 1 2 4 7 7 10 10 11 11 8 7 7 6 6 5 7 7 7 8 8 10 10 8 8 9 5 -1 -1 2 2
5 4 4 5 5 4 2 -0 -1 -1 -1 -1 1 2 2 3 5 7 8 9 11 11 10 8 8 7 6 6 7 4 7 7 8 9 10 8 7 6 3 -1 2 5 -1
4 5 5 5 6 5 3 1 2 1 0 1 2 2 3 4 5 7 8 10 11 11 11 10 9 8 7 7 7 7 8 7 8 9 9 7 7 6 3 -2 7 6 -0
2 3 5 4 5 6 7 7 7 5 4 4 4 4 5 6 6 7 8 9 10 11 11 11 10 9 9 9 8 8 8 8 9 9 8 7 7 6 3 -5 5 8 3
-4 -4 -3 3 5 6 8 7 8 10 10 8 7 6 7 7 8 9 10 10 10 11 11 11 11 9 9 9 9 9 9 9 9 9 8 7 6 5 0 1 7 7 5
-5 -5 -5 -3 1 4 7 8 11 10 11 11 8 7 10 11 11 11 12 12 12 12 11 11 12 11 9 9 9 9 8 9 9 9 7 7 6 4 -2 5 8 8 7
-5 -4 -3 -3 2 6 9 10 9 8 8 11 9 9 9 13 13 13 12 12 12 13 12 12 12 11 10 9 9 8 8 9 9 8 7 7 6 5 -0 3 7 7 5
-4 -4 -3 1 6 8 9 9 9 8 8 8 10 9 8 11 12 13 14 12 13 12 12 10 12 11 11 10 9 9 7 9 10 8 7 6 6 5 1 1 5 3 3
-3 -1 2 3 4 6 9 9 9 8 7 6 9 10 9 9 10 12 13 12 12 12 12 12 12 12 11 11 10 10 10 10 9 8 8 7 6 5 2 2 3 1 1
-2 -1 -1 -0 2 5 6 7 7 6 7 8 10 11 11 10 11 11 12 12 12 13 12 12 12 12 11 11 10 9 10 9 9 9 8 7 7 5 2 2 3 2 -1
3 4 4 4 3 3 6 7 9 9 8 7 7 6 8 11 10 11 11 12 12 13 13 12 12 11 11 10 10 9 9 9 9 8 9 8 6 6 6 5 3 1 -0
4 3 2 1 -1 -3 2 10 11 10 9 8 8 8 8 9 9 11 11 12 12 12 12 12 11 12 11 9 9 9 9 8 8 8 8 8 7 7 6 6 5 6 6
4 2 1 -3 -5 -5 7 9 9 8 10 11 11 10 10 10 11 10 10 11 12 12 12 12 11 11 11 10 9 10 9 9 8 7 7 7 7 7 7 6 6 7 5

GFSSE_850_dewp_135.txt.gz
Dewpoint
0 -2 -1 2 2 4 6 6 6 7 9 10 10 10 9 9 6 7 8 9 10 10 10 10 11 12 12 10 11 12 12 11 12 13 12 11 10 10 8 10 10 10 11
-5 -5 -4 -1 -0 1 3 5 6 8 10 10 11 10 9 9 7 7 7 8 9 10 11 11 11 12 12 10 10 10 8 7 9 11 11 10 10 10 10 10 10 11 11
-5 -4 -5 -5 -6 -6 -5 -0 4 7 9 10 11 10 10 9 7 7 7 8 9 10 10 11 11 11 10 8 8 9 9 9 8 9 10 9 10 10 10 10 10 10 10
-5 -6 -9 -8 -9 -7 -6 -3 2 6 9 10 10 10 10 10 8 7 7 8 9 9 10 11 10 10 9 7 7 8 9 10 10 9 8 10 9 10 10 10 10 10 10
-9 -12 -10 -8 -8 -9 -6 -3 1 5 8 9 10 9 10 10 9 7 8 9 9 10 10 10 9 9 8 7 7 9 10 10 9 10 10 10 10 10 10 9 8 8 8
-11 -12 -11 -10 -9 -11 -8 -4 -0 4 6 8 8 8 10 11 9 8 8 7 8 8 10 9 9 9 8 8 9 9 10 10 10 10 10 10 8 6 5 6 7 7 8
-11 -12 -11 -11 -10 -12 -12 -6 -2 2 4 6 6 7 10 11 10 8 6 5 5 8 10 9 9 9 8 9 10 10 10 10 10 8 10 9 7 6 5 7 8 9 10
-11 -10 -10 -10 -10 -10 -10 -8 -2 2 3 4 4 7 10 11 10 9 6 4 4 5 5 9 9 10 8 9 9 10 10 10 10 7 7 7 7 6 7 8 9 10 10
-9 -10 -9 -10 -9 -9 -8 -8 -4 1 3 4 5 7 10 11 11 9 7 6 5 4 5 7 9 9 7 8 9 9 11 9 9 10 7 7 8 8 7 8 9 10 9
-8 -8 -8 -8 -8 -7 -7 -6 -5 -2 2 4 4 6 9 10 11 10 8 8 8 5 5 5 10 7 7 7 8 9 11 9 9 8 8 8 10 9 8 7 6 7 8
-6 -7 -6 -5 -5 -5 -6 -5 -3 -1 -0 3 4 5 8 9 11 11 10 8 9 6 5 5 9 5 4 6 7 9 9 9 9 9 9 9 9 10 10 9 7 6 7
-5 -6 -5 -4 -4 -3 -4 -4 -2 -1 1 1 3 3 5 7 9 10 11 10 10 7 6 7 7 5 7 7 7 5 3 5 9 10 9 9 9 9 9 9 7 6 7
-0 -2 -4 -5 -4 -4 -3 -2 -2 -0 0 2 2 2 3 6 9 9 10 10 11 8 6 6 7 6 6 7 7 7 6 6 8 9 10 9 9 10 10 9 9 6 5
2 2 3 3 1 -1 -3 -2 -2 -1 -0 1 2 3 3 5 7 8 10 10 11 10 7 6 5 5 6 7 7 6 8 9 7 8 10 10 8 9 10 10 8 8 5
6 4 4 4 5 5 3 -2 -2 -1 0 1 2 3 5 5 5 7 9 10 11 11 9 7 6 6 6 6 7 7 8 8 7 8 9 10 8 9 10 9 8 9 6
7 6 5 6 6 7 7 5 -0 -2 -1 0 1 2 4 5 5 7 8 9 10 11 11 9 8 7 7 7 6 8 8 7 8 7 8 10 8 8 10 9 8 9 7
-6 5 7 6 7 7 8 7 4 1 -0 -0 0 2 4 5 5 6 8 9 10 10 11 11 9 8 8 7 7 7 6 8 9 7 9 10 8 7 8 9 8 9 8
-7 -6 6 6 6 7 8 7 6 4 4 3 2 3 4 5 6 7 7 9 9 10 11 11 11 10 9 8 8 7 8 7 8 8 8 9 7 7 6 7 8 8 8
-10 -6 -0 6 6 4 6 8 9 8 9 9 8 7 7 6 7 8 8 9 9 10 11 11 12 11 10 9 9 9 9 9 8 8 9 9 7 7 6 4 7 8 8
-10 -7 -4 -2 -1 2 6 9 10 11 12 12 12 11 11 10 9 9 9 10 10 11 12 12 12 12 11 10 9 9 10 10 9 9 9 9 7 6 5 3 6 8 7
-9 -7 -5 -4 -4 -2 3 9 9 10 11 10 9 8 10 10 10 12 11 12 11 11 11 11 12 12 12 11 10 10 10 10 9 9 9 9 7 6 6 4 4 6 6
-5 -5 -6 -4 -4 -3 1 7 8 8 9 8 7 7 9 10 9 11 11 12 12 13 12 12 11 12 12 11 10 10 9 9 9 10 9 9 7 7 6 5 4 4 2
-1 2 -2 -2 -1 4 8 8 10 10 9 9 8 7 9 11 10 11 11 11 12 12 11 10 11 11 11 11 11 10 10 9 8 8 9 9 7 7 7 5 3 3 1
5 5 6 8 8 9 10 10 9 8 6 5 6 6 6 7 9 9 10 11 11 11 11 10 11 11 11 11 11 10 10 8 9 9 8 9 8 8 7 5 3 2 2
5 6 6 6 5 6 5 4 4 7 8 8 8 8 8 8 9 10 10 10 11 11 12 12 11 12 12 10 11 10 10 10 9 8 9 9 9 8 7 6 3 1 1
4 4 3 2 2 3 5 5 2 7 10 11 10 9 9 9 9 9 9 8 9 10 11 12 12 12 11 11 10 10 9 10 9 8 8 8 8 8 8 6 5 5 0

GFSSE_850_dewp_141.txt.gz
Dewpoint
3 6 10 10 10 9 9 8 6 6 7 9 9 9 9 9 7 7 9 10 9 10 10 11 11 10 10 10 11 12 11 12 12 11 10 9 9 10 11 9 9 10 11
1 4 8 9 9 8 8 8 6 6 6 8 9 8 9 8 6 7 9 9 9 10 10 10 11 12 10 10 10 11 12 10 10 9 8 8 7 8 11 9 10 11 11
-1 -1 4 6 6 7 8 8 7 6 7 8 9 9 8 7 7 7 8 9 10 10 10 11 11 11 10 10 11 12 10 9 8 9 8 7 8 9 10 10 11 11 11
-3 -3 -0 2 1 4 6 8 6 7 8 8 9 9 9 8 7 7 7 9 9 10 10 11 11 11 10 9 9 7 7 7 6 9 10 10 8 9 10 11 11 11 10
-3 -7 -5 -3 -2 -1 1 5 5 6 7 8 9 9 9 8 7 7 8 9 9 10 10 10 11 11 9 8 7 7 8 9 8 8 9 9 9 9 10 11 11 10 9
-8 -7 -5 -8 -10 -9 -4 0 4 5 6 7 8 8 8 9 7 7 8 9 8 9 10 10 10 10 8 7 7 8 8 8 9 9 9 9 10 11 11 11 10 9 8
-7 -5 -6 -8 -10 -9 -5 -2 1 3 4 5 6 7 8 9 7 7 9 7 6 8 10 9 9 8 8 7 7 8 9 9 10 10 10 9 10 10 8 9 9 8 9
-5 -5 -7 -8 -7 -6 -4 -3 -0 2 2 3 5 6 7 10 8 8 6 5 5 8 9 8 8 9 8 7 7 8 9 9 10 10 9 9 8 7 7 7 8 9 10
-3 -8 -9 -8 -6 -5 -3 -0 1 2 2 2 3 5 6 10 9 8 5 4 5 6 7 7 8 9 8 7 6 8 9 9 7 9 9 8 7 8 8 7 9 10 9
-2 -5 -8 -8 -7 -4 -2 -0 2 3 3 3 4 4 6 10 10 8 5 5 5 5 5 6 8 9 9 7 6 8 10 9 9 8 7 7 8 9 8 9 9 9 8
-2 -3 -3 -5 -5 -4 -2 0 2 4 5 5 5 5 8 10 10 9 6 5 5 5 5 6 7 9 9 6 7 7 8 9 9 9 8 8 9 9 9 9 9 8 8
-3 -3 -2 -4 -4 -3 -1 -0 3 5 6 6 6 6 9 10 10 10 7 6 7 6 5 6 7 9 8 7 7 8 9 9 9 9 8 9 9 8 9 9 9 8 8
-3 -3 -2 -4 -4 -3 -1 1 1 3 4 5 6 7 8 9 10 10 9 7 7 7 6 6 8 10 8 7 7 7 7 9 6 7 10 9 9 9 8 7 8 8 8
-2 -3 -2 -4 -4 -3 -1 1 1 -1 -1 -0 2 4 6 7 9 10 10 10 8 8 7 6 7 8 7 6 7 7 6 8 5 5 8 9 9 8 8 8 8 8 8
-0 -3 -2 -1 -2 -3 -2 0 1 -1 -2 -2 -2 -0 2 4 7 9 10 10 10 8 9 7 7 8 6 7 7 8 7 7 8 7 7 8 9 8 8 9 8 7 7
5 3 -1 -2 -1 -1 -1 -1 -0 1 0 -1 -1 -1 -0 0 4 6 8 9 11 10 10 8 7 7 7 7 7 7 7 7 8 8 8 7 9 9 8 8 8 8 8
-2 6 7 6 3 -1 -2 -1 -0 -1 -1 -1 -2 -0 1 2 2 4 5 7 9 10 11 10 7 7 7 7 6 7 7 8 8 7 7 8 9 9 8 9 8 8 8
-7 -6 -5 -3 1 4 6 4 -0 -1 -0 -0 -1 -0 1 2 3 4 7 8 7 10 11 11 9 8 7 6 6 7 7 7 8 7 6 7 7 8 8 8 8 8 8
-10 -11 -10 -9 -8 -8 -4 3 7 5 2 1 1 0 1 4 4 4 5 8 10 10 10 12 11 11 8 7 7 8 8 7 8 7 7 7 8 8 8 7 8 7 8
-12 -11 -12 -11 -10 -10 -10 -9 2 9 8 6 5 4 2 3 4 4 4 5 6 10 10 11 11 12 11 9 8 9 9 8 8 7 8 8 7 8 9 8 7 7 7
-11 -11 -12 -12 -12 -11 -10 -9 -7 -5 6 8 8 8 6 4 4 4 4 5 6 8 9 10 11 11 12 11 9 10 10 9 9 9 9 9 9 8 9 8 7 8 7
-11 -12 -13 -11 -11 -10 -10 -9 -7 -6 1 10 10 10 10 6 6 8 8 8 8 10 10 10 11 11 12 12 10 10 11 10 9 9 9 10 9 9 9 9 7 6 8
-11 -11 -12 -13 -10 -9 -9 -5 3 10 12 11 11 10 9 9 11 11 10 11 11 10 11 12 10 11 11 12 11 10 10 10 9 9 8 9 10 9 9 9 7 6 6
-8 -8 -7 -9 -8 -6 -3 5 10 12 13 13 11 8 7 5 7 6 10 10 11 9 12 12 12 11 11 11 11 11 10 9 9 8 7 9 9 9 9 9 8 7 6
-7 -7 -7 -6 -2 1 3 9 12 13 14 13 12 12 8 6 5 4 8 10 7 8 9 12 13 12 13 12 9 9 11 11 9 8 9 8 9 9 9 9 8 7 6
-1 -3 1 7 7 11 12 12 12 13 12 8 7 8 12 8 7 8 4 9 8 9 12 11 12 13 13 12 11 11 10 10 10 10 9 9 8 8 8 8 8 8 7

GFSSE_850_dewp_144.txt.gz
Dewpoint
9 1 3 7 9 9 9 9 9 9 8 8 8 9 10 10 11 11 10 9 9 10 10 11 11 10 11 10 10 11 11 12 12 12 10 8 9 8 7 10 12 12 10
8 -2 2 6 9 9 8 8 9 9 9 8 8 9 10 10 10 10 10 9 9 10 10 10 11 11 11 11 11 11 12 12 11 9 8 8 9 8 9 10 12 10 10
5 -1 3 4 6 7 6 8 9 9 9 9 9 9 9 9 9 9 9 8 9 9 10 10 11 11 10 10 11 12 11 10 9 8 9 12 10 9 8 9 10 11 11
4 -3 -2 0 4 6 6 8 8 8 8 8 8 8 8 8 8 8 7 8 9 9 10 10 11 11 10 10 11 11 9 9 7 8 12 12 10 10 10 10 11 12 11
3 -3 -4 -3 1 4 5 7 9 8 8 8 9 8 8 8 7 7 7 8 9 9 10 10 11 11 10 9 8 8 8 8 8 12 12 12 12 10 10 10 11 11 10
7 -1 -5 -3 3 5 5 6 8 8 8 9 9 9 8 8 7 7 7 8 9 9 10 10 11 10 9 8 8 8 8 9 9 11 12 12 12 10 10 11 11 9 8
10 4 -4 -2 1 3 3 4 6 8 9 9 9 9 8 8 7 7 8 8 7 9 10 10 10 10 9 7 7 8 8 8 12 12 12 12 11 11 11 10 9 8 7
10 -1 -4 0 1 2 3 1 0 6 9 9 9 8 8 9 7 7 8 6 6 8 9 8 8 9 8 6 7 8 8 9 12 12 12 12 11 8 9 9 7 7 9
3 -3 -3 0 3 3 2 0 1 4 7 9 8 8 8 9 8 8 7 5 5 7 7 7 8 8 8 7 6 7 8 8 11 11 11 12 9 8 8 8 7 9 8
5 -4 -3 -2 0 1 2 2 1 2 5 7 8 8 8 10 9 8 6 5 5 6 6 6 7 9 8 7 6 7 8 9 12 12 11 11 7 8 8 8 9 9 9
3 -2 -3 -4 -5 -2 1 3 4 5 6 7 8 8 9 11 10 9 7 5 6 6 5 6 7 9 9 7 7 8 10 11 12 11 11 7 7 9 9 8 9 9 7
8 -2 -4 -6 -5 -2 -0 2 4 7 8 9 9 8 9 14 13 12 9 6 6 6 6 6 8 9 9 10 7 7 10 11 11 11 11 8 7 9 9 9 9 8 7
10 10 -3 -6 -5 -2 -2 0 4 13 12 12 13 12 9 14 14 13 12 6 6 6 6 6 8 10 12 11 11 11 11 12 12 11 10 9 8 9 8 5 8 8 8
10 11 5 -4 -5 -4 -2 -0 2 5 9 13 12 12 7 8 11 13 13 11 10 9 12 11 12 12 12 12 12 12 11 10 12 9 8 9 9 10 9 8 8 8 8
9 10 9 -2 -4 -3 -2 -1 0 2 4 12 11 5 7 8 10 13 14 13 11 11 11 12 12 12 13 12 12 12 11 11 10 6 6 7 9 9 9 8 8 8 7
2 9 10 3 -3 -4 -4 -3 -1 1 2 5 8 0 3 7 10 9 14 13 12 11 11 12 12 12 12 12 12 12 11 11 8 8 8 8 8 9 9 8 8 8 7
-3 -0 10 11 3 -1 -4 -5 -3 -1 1 2 4 -1 1 3 4 6 13 14 13 12 12 12 12 12 12 12 12 12 11 11 11 8 8 6 7 8 9 8 8 8 8
-5 -2 2 11 13 5 0 -1 -3 -3 -3 2 7 8 -1 2 3 5 8 13 13 13 12 12 12 12 11 11 11 11 10 11 11 9 8 6 7 8 9 8 8 8 8
-6 -4 -3 -5 7 3 1 6 2 1 1 1 2 2 2 0 1 3 8 9 13 13 12 12 12 12 9 11 11 11 11 11 11 10 9 6 7 8 8 9 8 8 8
-3 -3 -3 -5 -9 4 -7 -6 6 10 12 12 12 11 10 1 1 3 4 7 9 13 13 13 13 12 12 11 11 11 12 11 11 11 11 9 7 8 10 10 8 8 8
0 -7 -11 -11 -10 -3 3 10 11 10 9 12 12 12 12 4 2 2 4 10 12 13 13 13 13 12 12 11 12 12 12 11 11 11 11 11 8 7 8 10 9 10 8
1 1 0 -6 -5 -3 -1 3 8 10 11 11 12 13 13 12 6 5 5 13 13 12 13 13 13 13 12 12 11 11 11 11 10 10 11 11 10 8 9 10 10 9 9
1 2 2 0 -5 -3 -1 -1 6 10 11 12 12 12 12 11 11 8 7 12 7 12 13 12 11 12 13 12 12 11 11 11 11 11 10 10 10 9 10 9 9 10 9
4 4 4 3 -0 -2 2 0 3 9 11 11 12 10 12 12 10 9 7 8 9 5 12 12 12 11 12 12 12 11 10 10 10 11 10 10 10 10 10 9 9 10 10
4 6 7 6 6 5 4 7 5 9 11 12 12 12 12 12 12 12 11 10 6 4 5 10 12 11 11 12 12 11 12 11 10 8 9 10 10 9 10 9 9 10 9
4 5 7 8 10 9 9 11 11 11 13 13 12 11 12 13 13 13 12 11 9 5 8 5 6 9 8 12 12 12 12 11 11 10 9 10 10 9 9 10 9 9 10

GFSSE_850_dewp_147.txt.gz
Dewpoint
6 8 -0 3 6 7 8 8 7 7 9 11 11 12 12 11 11 10 9 9 9 10 10 11 11 11 11 10 10 11 11 11 12 11 9 9 8 8 8 11 11 10 11
8 8 -1 5 6 7 8 7 7 8 9 10 10 11 11 11 10 9 9 9 9 10 10 11 10 10 10 10 11 11 12 12 11 11 8 8 8 8 8 9 11 9 11
10 7 0 4 6 6 7 7 7 9 9 9 9 11 10 10 9 9 9 8 9 9 10 10 11 11 11 11 10 12 12 11 10 8 8 12 12 9 9 10 10 11 11
12 7 0 3 6 6 6 6 7 9 9 9 9 10 10 9 8 8 8 8 9 9 9 10 11 11 10 10 11 11 10 9 8 7 12 12 12 8 9 9 10 12 12
13 12 5 4 5 5 6 6 7 8 9 9 9 10 9 8 8 8 7 8 8 9 10 10 11 11 10 10 10 8 8 7 9 11 12 12 12 10 10 9 12 12 11
13 14 8 6 5 4 6 7 7 7 8 9 9 9 9 8 7 7 7 7 8 9 9 10 10 11 10 9 8 8 8 8 11 13 13 12 12 10 10 9 9 11 9
12 13 12 6 5 5 7 7 7 6 5 8 9 9 9 8 7 7 7 8 7 7 9 10 10 10 10 9 8 8 8 8 12 12 10 11 11 10 11 11 10 9 7
12 14 10 4 3 5 6 7 7 6 6 8 9 9 9 9 8 7 8 7 6 7 9 9 9 9 8 8 7 8 8 7 11 11 12 10 11 10 8 5 9 8 8
14 15 14 1 1 2 6 6 7 6 6 8 9 9 9 9 8 8 8 7 6 7 8 7 8 8 8 7 7 6 7 8 11 10 10 12 10 9 9 8 7 8 8
14 15 15 2 0 1 4 5 6 6 7 9 10 10 9 9 9 8 8 6 6 7 7 7 7 8 8 8 6 7 7 7 11 11 11 11 9 8 8 8 7 9 8
14 15 13 13 4 -0 2 3 5 6 7 9 10 10 10 10 10 9 8 6 6 7 7 6 7 9 9 7 7 7 7 10 11 11 10 8 6 7 8 7 9 9 8
12 14 15 14 13 0 6 11 5 7 8 9 10 10 10 13 14 14 12 7 6 6 6 6 7 9 9 9 7 7 8 11 10 10 10 10 6 8 9 8 9 8 7
6 12 13 15 10 -1 -1 7 7 13 11 11 13 14 12 13 14 14 14 10 6 7 7 6 7 8 9 11 11 10 11 11 10 10 10 8 8 8 10 9 8 9 8
2 10 12 13 15 5 6 -1 -3 12 13 14 14 13 14 13 13 13 13 14 10 10 12 11 12 12 12 11 11 11 11 10 10 10 12 6 8 8 9 9 8 9 8
-2 7 11 12 14 13 4 9 4 9 13 13 13 14 14 14 14 15 13 13 12 12 12 13 12 12 12 12 10 11 11 10 11 12 5 5 7 9 9 7 9 8 8
-4 -1 7 11 13 14 11 10 9 10 12 9 14 14 13 14 13 14 13 13 12 12 12 12 12 12 12 12 11 11 11 10 10 11 8 6 7 7 9 8 8 8 8
-5 -3 -0 7 11 13 13 13 13 12 12 12 11 14 12 8 14 14 13 13 12 12 11 12 12 12 12 12 12 11 11 10 11 11 10 8 8 8 8 8 8 8 8
-2 -1 -2 -0 9 12 13 13 12 12 12 12 10 12 11 2 10 14 13 13 12 12 12 12 12 12 11 11 11 11 11 11 10 11 11 11 7 7 8 9 8 7 8
0 1 2 1 2 8 13 13 12 12 12 12 12 12 13 9 4 12 12 13 13 13 12 12 12 12 12 12 10 10 11 10 10 10 10 11 9 6 7 8 8 8 8
1 2 2 2 2 2 6 11 13 13 13 12 12 12 12 13 8 3 9 13 13 14 13 12 12 12 12 12 10 10 10 10 11 10 10 10 9 8 7 7 8 8 8
3 4 5 3 2 2 1 2 9 11 11 12 12 12 12 13 13 10 10 12 13 13 13 13 12 12 12 12 11 10 11 10 11 10 10 10 10 10 7 7 8 9 8
2 3 2 4 5 3 2 -1 0 4 8 10 11 12 13 13 14 11 10 12 12 12 13 13 13 12 13 12 12 11 12 11 11 11 11 11 11 11 11 8 10 9 10
2 2 2 0 1 7 4 2 0 0 4 8 10 11 12 13 13 13 13 13 12 12 13 12 13 13 12 12 12 12 11 11 11 11 11 11 11 11 11 10 9 10 9
1 2 2 4 5 5 8 6 3 3 2 6 9 10 11 13 13 13 13 13 12 13 13 12 12 12 12 12 12 12 11 11 10 11 11 11 11 11 11 10 10 10 10
0 1 0 4 6 7 8 9 10 10 6 2 7 10 12 12 13 13 13 13 13 13 13 12 11 8 6 4 11 11 12 11 11 10 11 11 10 10 10 11 11 10 10
-0 -1 -0 1 3 5 6 8 8 9 11 9 7 8 12 12 12 12 12 12 13 13 12 12 9 6 6 5 9 12 11 12 12 11 10 10 10 9 11 11 11 10 10

GFSSE_850_dewp_150.txt.gz
Dewpoint
9 7 -0 0 2 5 6 5 5 5 6 9 12 12 11 10 10 8 7 8 8 9 10 11 11 11 11 11 10 11 11 11 12 11 10 9 8 8 11 10 10 11 10
7 7 -1 -1 2 5 6 5 4 5 6 9 12 12 11 10 9 8 7 8 9 10 10 10 10 10 10 10 11 11 11 12 11 10 8 9 8 8 8 10 10 9 10
9 9 2 2 4 5 6 5 5 5 6 9 10 11 10 10 9 8 8 7 9 9 10 10 11 11 10 10 10 11 11 10 10 8 11 11 8 8 9 10 10 10 10
11 10 3 2 5 6 5 5 6 6 6 8 9 10 10 9 8 8 8 8 9 9 9 10 11 10 10 10 10 11 10 9 8 10 12 12 9 8 10 10 9 9 12
13 11 2 4 5 7 6 5 6 7 6 7 9 10 10 9 8 8 7 8 9 9 9 10 10 11 10 9 9 8 7 7 10 12 12 12 11 9 9 9 12 12 11
13 14 5 8 7 8 7 6 5 8 8 8 8 9 9 9 8 8 7 8 9 9 9 10 10 10 10 9 8 7 7 8 12 12 7 12 11 10 10 9 10 9 10
12 13 13 11 8 7 7 6 6 8 8 8 9 9 9 8 8 8 8 8 9 9 9 10 10 10 10 9 8 7 8 9 11 11 12 11 11 9 9 8 6 6 7
12 13 13 12 8 6 6 6 7 8 8 8 9 9 9 8 8 7 7 8 8 7 8 9 8 8 9 8 7 6 6 8 13 12 11 10 10 10 8 5 6 4 5
13 14 14 10 7 6 6 5 6 7 8 8 9 9 9 9 8 8 8 8 7 6 7 6 6 7 8 7 7 6 5 8 11 11 12 8 10 9 7 6 7 8 8
7 14 15 8 6 6 5 4 3 6 7 8 9 9 9 9 9 8 9 9 7 6 7 5 5 6 8 7 6 4 5 10 10 10 11 10 6 8 7 8 7 9 8
10 12 15 15 5 7 6 3 0 3 5 8 9 9 9 9 9 9 9 9 8 7 7 6 6 6 8 8 5 5 6 9 11 11 10 10 8 6 7 8 8 9 9
5 11 11 15 15 10 9 3 -0 -0 3 6 9 9 9 9 9 9 9 9 7 7 8 7 7 7 8 8 6 6 5 10 10 11 10 10 8 8 8 8 9 9 8
-2 8 12 13 15 15 14 13 5 -2 -0 4 8 9 9 9 12 12 12 10 8 7 7 7 6 7 8 9 10 7 5 10 11 11 11 9 8 8 10 8 8 9 9
-2 -0 11 13 14 14 14 14 14 4 -2 1 5 8 7 10 12 13 13 13 11 7 7 7 7 7 7 12 11 10 8 10 11 10 10 8 7 8 8 9 8 6 9
-3 -2 2 11 12 13 13 14 13 9 12 7 5 7 10 11 10 14 12 13 12 10 8 9 11 10 8 10 11 11 10 10 10 10 10 9 6 7 8 9 8 7 9
-1 -2 -1 5 11 12 12 11 14 13 12 14 13 11 10 12 11 14 13 13 14 11 13 12 12 12 11 11 11 11 11 10 10 10 10 8 6 6 7 8 7 7 9
0 1 1 2 2 12 11 12 11 14 11 12 13 14 14 13 13 12 13 13 13 13 12 12 12 12 12 11 10 10 11 10 10 10 11 10 7 7 7 8 8 6 7
2 2 2 3 3 2 11 13 13 11 14 13 10 12 14 13 13 13 12 13 14 13 12 11 12 12 12 12 11 11 10 10 10 10 10 10 8 8 7 8 8 7 7
2 3 3 3 3 2 2 3 13 13 12 13 13 13 11 13 13 12 13 13 12 13 13 12 11 12 12 12 11 10 10 10 10 11 10 9 10 9 7 7 8 7 7
1 -1 -4 1 3 2 2 1 3 11 13 12 12 13 14 13 10 12 10 13 12 14 13 13 12 11 12 11 12 11 10 9 9 10 9 9 10 10 7 7 7 8 7
2 1 -1 -4 -8 2 3 2 3 3 6 11 13 12 13 13 13 11 12 10 12 12 14 13 12 11 12 12 11 10 11 11 10 10 9 10 10 10 9 7 7 8 7
1 -1 -1 -1 -1 -4 -0 3 6 5 2 4 9 10 11 13 13 13 12 13 11 12 14 13 13 12 12 13 12 11 11 11 11 11 10 10 10 10 10 9 8 7 7
0 -1 -2 -2 -1 0 1 -1 4 3 3 4 1 8 11 11 12 13 12 13 13 12 13 13 13 13 12 12 12 11 12 11 11 11 10 10 10 10 10 9 10 8 9
0 0 -1 -2 -2 -1 2 4 5 7 8 7 9 8 4 11 13 13 12 12 12 13 12 13 13 12 13 12 11 12 11 10 10 10 10 10 10 11 10 10 10 9 9
0 0 -0 -1 -2 -1 0 4 4 5 7 8 8 9 8 9 9 12 12 12 13 13 13 13 12 13 12 11 11 12 11 10 10 9 11 11 11 10 10 10 10 10 9
-0 -1 -1 -1 -1 -1 -1 1 3 4 5 6 6 8 9 8 11 11 9 11 13 13 12 13 12 12 11 11 9 9 10 10 9 11 11 11 10 9 10 10 10 10 10